OE5RBO Weather Reports


Display with metric or nautical units.
time (UTC)temp
F
wind
direction
speed
MPH
gust
MPH
rain 1hr
in
rain 24hr
in
rain mn
in
humidity
%
barometer
mb
20260504220815 63 0 0.0 0.0 0.00 0.00 0.00 74 1010.0
20260504215814 65 52 2.0 5.0 0.00 0.00 0.00 67 1010.0
20260504214814 64 52 3.0 7.0 0.00 0.00 0.00 67 1010.1
20260504213814 64 184 1.0 4.0 0.00 0.00 0.00 69 1010.2
20260504211812 63 152 3.0 5.0 0.00 0.00 0.00 70 1010.3
20260504210812 63 204 1.0 4.0 0.00 0.00 0.00 73 1010.2
20260504204811 64 153 0.0 1.0 0.00 0.00 0.00 71 1010.1
20260504203811 64 159 1.0 2.0 0.00 0.00 0.00 73 1010.1
20260504201811 66 34 0.0 2.0 0.00 0.00 0.00 67 1010.1
20260504200810 67 20 1.0 4.0 0.00 0.00 0.00 65 1010.2
20260504194809 69 51 8.0 13.0 0.00 0.00 0.00 58 1010.0
20260504193809 68 48 1.0 7.0 0.00 0.00 0.00 58 1010.0
20260504192809 69 11 3.0 6.0 0.00 0.00 0.00 58 1010.0
20260504191808 69 39 4.0 5.0 0.00 0.00 0.00 59 1010.0
20260504190808 70 59 2.0 4.0 0.00 0.00 0.00 57 1009.9
20260504185808 70 55 4.0 7.0 0.00 0.00 0.00 57 1009.8
20260504184807 70 72 3.0 5.0 0.00 0.00 0.00 58 1009.8
20260504183807 71 55 3.0 5.0 0.00 0.00 0.00 57 1009.6
20260504182806 71 58 3.0 4.0 0.00 0.00 0.00 55 1009.7
20260504180806 72 46 5.0 6.0 0.00 0.00 0.00 55 1009.6
20260504174805 73 17 3.0 4.0 0.00 0.00 0.00 54 1009.7
20260504173804 73 42 2.0 4.0 0.00 0.00 0.00 54 1009.7
20260504172804 74 34 1.0 3.0 0.00 0.00 0.00 54 1009.6
20260504170803 74 42 2.0 4.0 0.00 0.00 0.00 54 1009.6
20260504150759 80 288 6.0 11.0 0.00 0.00 0.00 45 1009.6
20260504140757 80 18 4.0 8.0 0.00 0.00 0.00 44 1009.9
20260504130755 79 18 5.0 14.0 0.00 0.00 0.00 50 1010.8
20260504081744 71 208 1.0 5.0 0.00 0.00 0.00 57 1014.7
20260504080744 69 225 2.0 5.0 0.00 0.00 0.00 58 1014.8
20260504050737 61 153 1.0 4.0 0.00 0.00 0.00 74 1014.4
20260504044737 60 136 1.0 4.0 0.00 0.00 0.00 76 1014.5
20260504042736 60 193 1.0 4.0 0.00 0.00 0.00 78 1014.5
20260504040735 60 203 2.0 5.0 0.00 0.00 0.00 78 1014.5
20260504035735 60 176 2.0 5.0 0.00 0.00 0.00 77 1014.5
20260504034734 60 198 3.0 7.0 0.00 0.00 0.00 76 1014.4
20260504033734 60 203 3.0 6.0 0.00 0.00 0.00 75 1014.4
20260504032733 61 210 1.0 4.0 0.00 0.00 0.00 75 1014.4
20260504031733 61 215 1.0 3.0 0.00 0.00 0.00 74 1014.4
20260504030733 61 190 2.0 5.0 0.00 0.00 0.00 73 1014.3
20260504022731 62 222 3.0 6.0 0.00 0.00 0.00 70 1014.0
20260504015730 62 217 2.0 6.0 0.00 0.00 0.00 69 1013.8
20260504014730 62 143 2.0 4.0 0.00 0.00 0.00 68 1013.8
20260504013729 62 153 2.0 4.0 0.00 0.00 0.00 68 1013.7
20260504012729 63 205 2.0 7.0 0.00 0.00 0.00 67 1013.6
20260504011729 62 160 3.0 8.0 0.00 0.00 0.00 67 1013.6
20260504010729 62 201 2.0 6.0 0.00 0.00 0.00 68 1013.4
20260504005728 62 176 2.0 5.0 0.00 0.00 0.00 68 1013.3
20260504004728 62 143 2.0 4.0 0.00 0.00 0.00 68 1013.3
20260504003727 63 155 3.0 5.0 0.00 0.00 0.00 67 1013.2
20260504002727 63 152 2.0 5.0 0.00 0.00 0.00 67 1013.1
20260504001726 63 211 1.0 4.0 0.00 0.00 0.00 67 1013.1
20260503235726 63 204 3.0 7.0 0.00 0.00 0.00 66 1012.8
20260503234725 63 143 1.0 5.0 0.00 0.00 0.00 67 1012.7
20260503232725 64 155 4.0 8.0 0.00 0.00 0.00 64 1012.5
20260503230724 64 162 2.0 6.0 0.00 0.00 0.00 66 1012.4
20260503225724 63 162 2.0 5.0 0.00 0.00 0.00 66 1012.4
20260503222722 64 200 3.0 8.0 0.00 0.00 0.00 66 1011.9